Location: Chomutov
(50.4500°N, 13.4333°E)
Time: 18:52:49
(UTC+02:00)

FO-29 - Pass Details

Date: 30 September 2021
Orbit: 800 x 1321 km, 98.6° (Epoch: 23 October)

Event Time Altitude Azimuth Distance (km) Brightness Sun altitude
Exits shadow 23:37:16 16° 252° (WSW) 2,911 12.0 -39.9°
Maximum altitude 23:40:06 19° 278° (W) 2,728 12.0 -40.1°
Drops below altitude 10° 23:45:20 10° 320° (NW) 3,354 12.9 -40.4°
Sets 23:49:09 0° 338° (NNW) 4,301 13.7 -40.6°
